Location: Long Sault Conservation Area
(44.0496°N, 78.7419°W)
Time: 15:10:58
(UTC-04:00)

Daily predictions for brighter satellites

Satellite Brightness Start Highest point End
(mag) Time Altitude Azimuth Time Altitude Azimuth Time Altitude Azimuth
Cosmos 1980 Rocket 2.2 20:33:13 10° SSW 20:38:53 79° ESE 20:44:37 10° NNE
Cosmos 2026 Rocket 4.4 20:35:56 10° N 20:41:52 43° ENE 20:47:40 10° SE
USA 234 3.4 20:36:33 10° ESE 20:43:03 71° NE 20:49:34 10° NW
Intercosmos 25 Rocket 4.2 20:45:00 10° SE 20:47:41 25° E 20:50:56 10° NNE
Cosmos 1825 3.0 20:44:52 10° N 20:48:20 32° ENE 20:51:46 10° SE
CZ-2D R/B 3.5 20:46:49 10° S 20:50:42 77° WSW 20:54:37 10° NNW
Nadezhda 4 Rocket 4.4 20:46:47 10° NNW 20:53:00 69° W 20:59:15 10° S
SL-16 R/B 2.7 20:50:15 10° S 20:55:26 38° ESE 21:00:39 10° NE
ATLAS 5 CENTAUR R/B 3.4 20:55:29 10° NNW 21:00:45 34° NE 21:06:11 11° ESE
Cosmos 1862 4.2 20:57:33 10° N 21:01:13 33° ENE 21:04:33 12° SE
Cosmos 1092 Rocket 4.2 20:56:25 10° N 21:02:47 81° W 21:09:07 10° S
Cosmos 1634 Rocket 4.0 20:56:41 10° S 21:02:56 73° E 21:09:16 10° NNE
Helios 1B rocket 2.5 20:59:37 10° NNE 21:03:41 57° E 21:07:42 10° S
Lacrosse 4 Rocket 1.7 21:00:41 10° NNW 21:04:57 59° ENE 21:08:46 13° SE
Cosmos 1707 Rocket 3.7 21:00:35 10° SSW 21:05:01 79° W 21:09:28 10° N
ERS-1 Rocket 3.8 21:02:09 11° SE 21:06:23 34° ENE 21:10:53 10° N
USA 186 2.1 21:04:10 10° S 21:06:48 53° W 21:09:40 10° NNW
Cosmos 1655 Rocket 4.2 21:02:25 10° N 21:08:44 56° ENE 21:14:57 10° SSE
ERBS 2.6 21:06:32 10° NW 21:09:58 65° SW 21:12:44 15° SE
Cosmos 1733 Rocket 3.5 21:06:01 10° N 21:10:19 46° ENE 21:14:14 12° SSE
Meteor 2-20 Rocket 4.4 21:04:42 10° N 21:10:50 74° E 21:16:57 10° SSE
SAR-Lupe-4 3.6 21:08:49 10° SSE 21:12:24 86° WSW 21:16:02 10° NNW
Cosmos 1939 Rocket 2.9 21:08:37 10° SSE 21:12:37 62° ENE 21:16:36 10° N
CENTAUR R/B 3.9 21:07:44 10° WSW 21:13:39 44° NW 21:20:25 10° NNE
ARGOS 4.4 21:11:28 13° ESE 21:14:52 24° ENE 21:19:04 10° N
Cosmos 1862 Rocket 4.0 21:13:58 10° SSE 21:18:09 42° E 21:22:24 10° NNE
SeaSat 1 3.6 21:17:14 14° ESE 21:20:33 29° NE 21:24:46 10° N
Cosmos 1408 2.6 21:20:10 10° N 21:23:54 87° WSW 21:27:28 11° S
Cosmos 1992 Rocket 4.2 21:19:57 10° S 21:24:59 50° ESE 21:30:03 10° NNE
Atlas Centaur 2 4.0 21:23:05 10° SSW 21:28:28 22° SSE 21:31:32 18° SE
Terra 4.0 21:31:30 10° ENE 21:32:50 11° ENE 21:34:12 10° NE
Abrixas rocket 2.7 21:29:36 10° W 21:32:50 58° NNW 21:35:56 11° ENE
Cosmos 2242 Rocket 3.8 21:32:05 10° SSW 21:36:35 75° W 21:41:05 10° N
Helios 1A 4.3 21:37:57 10° SSW 21:41:55 39° W 21:45:56 10° NNW
Cosmos 2279 Rocket 4.0 21:37:57 10° S 21:44:12 89° E 21:50:28 10° N
Cosmos 1867 4.0 21:44:00 10° NNW 21:49:21 51° NE 21:52:05 27° ESE
MetOp-A 4.2 21:47:17 24° SE 21:50:26 62° ENE 21:55:44 10° N
Resurs 01 Rocket 4.4 21:51:16 10° SW 21:53:48 15° W 21:56:22 10° NW
H-2A R/B 3.0 21:52:49 25° E 21:54:28 30° ENE 21:58:44 10° N
OAO 3 Rocket 4.2 21:51:35 10° WSW 21:55:48 29° S 21:56:39 27° SSE
YAOGAN 6 3.0 21:56:56 25° S 21:58:55 61° W 22:02:32 10° NNW
Cosmos 968 Rocket 3.5 21:59:30 10° NNW 22:04:43 69° ENE 22:06:50 36° SE
Cosmos 2263 Rocket 2.3 21:59:41 10° NNW 22:05:14 69° WSW 22:08:25 26° S
SPOT 5 2.9 22:04:10 35° SE 22:06:04 63° ENE 22:10:42 10° N
COSMOS 2428 3.6 22:10:12 28° E 22:10:12 28° E 22:14:39 10° NE
Meteor 2-10 Rocket 3.7 22:05:36 13° S 22:10:49 84° E 22:16:39 10° NNE
Cosmos 2322 Rocket 3.0 22:06:09 10° SW 22:11:37 53° WNW 22:17:09 10° NNE
Sich 1 Rocket 3.6 22:10:22 10° N 22:14:51 84° W 22:16:31 38° S
Cosmos 1933 4.3 22:11:39 10° SSW 22:15:32 46° WNW 22:19:27 10° N
Cosmos 2360 Rocket 2.1 22:16:15 10° SSW 22:21:53 77° ESE 22:27:34 10° NNE
H-2A R/B 3.0 22:23:59 33° ENE 22:24:04 33° ENE 22:27:55 10° N
BREEZE-M DEB (TANK) 4.2 22:20:14 10° W 22:24:13 77° N 22:38:17 10° E
USA 234 4.2 22:22:53 22° S 22:26:20 37° SW 22:32:19 10° WNW
Cosmos 1908 Rocket 3.9 22:23:06 10° NNW 22:27:23 60° W 22:28:49 38° SSW
Meteor 1-20 Rocket 4.2 22:23:14 10° N 22:28:45 62° ENE 22:30:09 47° SE
Cosmos 2322 3.6 22:25:27 18° SSW 22:29:45 77° ESE 22:35:28 10° NNE
USA 245 4.2 22:30:44 36° S 22:33:15 77° WSW 22:38:25 10° NNW
Cosmos 1606 4.4 22:38:58 23° NE 22:38:58 23° NE 22:40:45 10° NNE
SL-16 R/B 3.8 22:34:25 10° WSW 22:39:34 35° NW 22:44:45 10° N
Cosmos 1782 Rocket 3.6 22:37:06 10° NNW 22:41:27 74° W 22:41:59 64° SSW
SPOT 1/Viking Rocket 3.5 22:40:22 53° S 22:41:40 86° WSW 22:46:55 10° NNW
IGS 5A 4.4 22:42:18 36° NE 22:42:18 36° NE 22:45:40 10° N
Lacrosse 4 Rocket 3.9 22:40:43 10° WNW 22:43:12 15° WSW 22:45:08 12° SW
Okean 2 Rocket 2.9 22:40:12 10° N 22:44:46 86° E 22:44:59 80° SSE
ERS-1 Rocket 4.5 22:42:09 17° SSW 22:45:09 30° W 22:49:35 10° NW
ATLAS 5 CENTAUR R/B 2.7 22:39:54 10° NW 22:45:49 60° WSW 22:47:45 42° S
Cosmos 1633 4.3 22:45:01 10° N 22:46:59 24° NE 22:46:59 24° NE
Cosmos 2333 Rocket 3.6 22:52:12 23° ENE 22:52:12 23° ENE 22:55:06 10° NE
Cosmos 2333 4.3 22:51:47 55° ESE 22:51:47 55° ESE 22:57:18 10° NNE
Cosmos 1782 3.6 22:53:34 45° NNE 22:53:34 45° NNE 22:56:30 10° NNE
Milstar 3 4.5 22:50:18 10° SW 22:53:09 15° SSW 22:53:09 15° SSW
Landsat 7 3.6 22:54:28 81° SE 22:54:40 85° ENE 22:59:28 10° NNW
ARGOS 3.7 22:52:58 36° SSW 22:54:45 51° W 23:00:00 10° NNW
Cosmos 2237 Rocket 4.0 22:59:46 18° ENE 22:59:46 18° ENE 23:01:45 10° NE
SeaSat 1 3.1 22:57:02 41° SW 22:57:53 45° WSW 23:02:38 10° NW
Cosmos 2278 Rocket 3.1 22:54:11 10° N 22:59:20 34° NE 23:00:07 33° ENE
Cosmos 1417 Rocket 4.4 23:03:56 60° SE 23:04:41 65° E 23:10:58 10° NNE
Cosmos 1745 Rocket 4.3 22:58:48 10° N 23:04:55 49° ENE 23:05:30 47° E
Cosmos 1777 Rocket 4.0 23:00:59 10° NNW 23:06:15 70° WSW 23:06:40 67° SW
Okean 1-7 3.8 23:07:56 46° W 23:08:27 48° WNW 23:12:44 10° N
Cosmos 1844 Rocket 2.5 23:03:04 10° NNW 23:08:41 87° ENE 23:09:04 78° SE
Terra 1.8 23:10:04 78° NNE 23:10:04 78° NNE 23:14:35 10° NNW
NOSS 3-1 (C) 4.1 23:11:31 37° ENE 23:11:31 37° ENE 23:15:54 10° NE
deb Chang Zheng 4 4.2 23:07:29 10° NNE 23:10:48 50° NNE 23:10:48 50° NNE
Meteor 1-27 Rocket 4.0 23:12:59 52° ENE 23:12:59 52° ENE 23:17:55 10° NNE
Spot 4 4.4 23:13:09 47° NE 23:13:09 47° NE 23:17:11 10° N
USA 229 DEB 3.7 23:06:17 10° SW 23:13:06 79° NW 23:20:07 10° NE
USA 229 3.7 23:06:21 10° SW 23:13:11 79° NW 23:20:12 10° NE
Atlas Centaur 2 4.1 23:10:25 10° SW 23:14:12 25° SSW 23:14:12 25° SSW
Cosmos 2151 Rocket 4.0 23:13:44 10° N 23:17:24 60° NNW 23:17:24 60° NNW
CZ-4 R/B 4.4 23:17:42 10° NNE 23:21:20 50° NE 23:21:20 50° NE
Iridium 4 Rocket 4.3 23:18:52 10° N 23:21:27 34° NNE 23:21:27 34° NNE
SL-19 R/B 4.3 23:17:23 10° NNE 23:23:34 89° ESE 23:24:12 73° SSW
NOSS 3-1 (A) 4.4 23:26:28 32° ENE 23:26:28 32° ENE 23:30:16 10° NE
Cosmos 2219 Rocket 2.4 23:28:37 57° ENE 23:28:37 57° ENE 23:33:14 10° NNE
CZ-4C R/B 3.2 23:23:22 10° NNW 23:30:16 57° NE 23:32:09 46° E
DMSP B5D2-2 4.3 23:25:32 10° N 23:30:45 65° WNW 23:31:12 62° W
CARTOSAT-1 4.5 23:32:34 46° NW 23:32:34 46° NW 23:35:56 10° NNW
Meteor 1-11 Rocket 3.6 23:27:51 10° N 23:33:08 81° NNE 23:33:08 81° NNE
H-2A R/B 3.1 23:33:27 34° WSW 23:33:48 34° W 23:38:19 10° NNW
ASTEX 1 4.0 23:43:30 51° WNW 23:43:30 51° WNW 23:48:02 10° NNW
Okean 1 Rocket 4.3 23:40:11 10° N 23:43:04 39° N 23:43:04 39° N
Cosmos 1553 Rocket 4.0 23:48:00 70° WSW 23:48:31 74° W 23:54:47 10° N
COSMOS 2428 3.6 23:52:07 35° WSW 23:53:52 46° WNW 23:59:22 10° NNE
